User: anonymous   Login
Location: Finney State Fishing Lake and Wildlife Area
(38.1834°N, 100.3310°W)
Time: 07:23:11
(UTC+00:00)
Language:

N. Korean satellite - Orbit

View from above orbital plane
View from above orbital plane
View from above satellite
View from above satellite

Ground track
Ground track

The orbit data is extracted from the following two-line orbital elements,

1 39026U 12072A   23027.54157658  .00042334  00000-0  83293-3 0  9991
2 39026  97.2822  22.1849 0027025  73.3057 287.1156 15.46736608563425
Epoch (UTC): 27 January 2023 12:59:52
Eccentricity: 0.0027025
inclination: 97.2822°
perigee height: 408 km
apogee height: 444 km
right ascension of ascending node: 22.1849°
argument of perigee: 73.3057°
revolutions per day: 15.46736608
mean anomaly at epoch: 287.1156°
orbit number at epoch: 56342

The dashed part of the orbit path shows where the satellite is in the earth's shadow,  

DLR